EA2MKR Weather Reports


time (UTC)temp
F
wind
direction
speed
knots
gust
knots
rain 1hr
in
rain 24hr
in
rain mn
in
humidity
%
barometer
mb
20260502170234 55 262 0.0 5.2 0.02 0.88 0.88 93 952.9
20260502164218 56 321 0.9 3.5 0.06 0.86 0.88 92 952.7
20260502163921 56 272 0.9 3.5 0.06 0.86 0.88 93 952.7
20260502163419 56 327 2.6 3.5 0.06 0.86 0.88 92 952.7
20260502162708 56 327 1.7 4.3 0.06 0.86 0.88 92 952.8
20260502162209 56 338 1.7 6.1 0.06 0.86 0.87 92 952.8
20260502161707 56 336 4.3 6.1 0.06 0.86 0.87 92 952.8
20260502161205 56 312 1.7 3.5 0.06 0.86 0.87 92 952.8
20260502160705 56 321 0.9 3.5 0.05 0.86 0.87 92 952.8
20260502160204 56 317 0.9 5.2 0.04 0.86 0.86 92 952.8
20260502152136 57 300 7.8 12.2 0.01 0.82 0.82 90 953.3
20260502151843 57 338 6.1 9.6 0.03 0.82 0.82 88 953.3
20260502151135 57 271 4.3 6.1 0.06 0.82 0.82 88 953.2
20260502150635 57 317 2.6 4.3 0.08 0.82 0.82 87 953.3
20260502150135 57 309 1.7 6.1 0.09 0.82 0.82 87 953.2
20260502130607 56 113 0.0 0.9 0.15 0.51 0.51 90 954.9
20260502130126 56 113 0.0 0.0 0.23 0.51 0.51 92 954.7
20260502130107 56 151 0.0 0.0 0.23 0.51 0.51 92 954.7
20260502123815 55 278 0.0 2.6 0.46 0.28 0.51 91 955.2
20260502123127 55 257 0.9 2.6 0.46 0.28 0.51 89 955.2
20260502123106 55 257 0.9 5.2 0.46 0.28 0.51 89 955.2
20260502122607 55 314 0.0 9.6 0.50 0.28 0.50 88 955.4
20260502122125 55 323 3.5 10.4 0.49 0.28 0.49 87 955.5
20260502122107 55 309 3.5 10.4 0.49 0.28 0.48 87 955.5
20260502121623 55 180 4.3 15.6 0.46 0.28 0.46 87 955.8
20260502121607 55 180 4.3 15.6 0.46 0.28 0.45 87 955.8
20260502121106 55 324 3.5 20.9 0.42 0.28 0.42 90 955.9
20260502120621 55 20 7.8 20.9 0.36 0.28 0.36 91 956.1
20260502120607 55 73 7.0 20.9 0.36 0.28 0.35 92 956.1
20260502120116 55 157 4.3 9.6 0.28 0.28 0.28 91 955.6
20260502120109 55 176 5.2 9.6 0.28 0.28 0.28 91 955.6
20260502115614 56 80 5.2 10.4 0.26 0.00 0.25 91 955.7
20260502115607 56 90 5.2 15.6 0.26 0.00 0.25 91 955.7
20260502115111 56 78 4.3 15.6 0.20 0.00 0.20 92 955.5
20260502115106 56 59 4.3 15.6 0.20 0.00 0.20 92 955.5
20260502114612 56 79 7.0 15.6 0.14 0.00 0.11 92 955.6
20260502114606 56 99 6.1 14.8 0.14 0.00 0.11 92 955.6
20260502114107 56 107 5.2 14.8 0.07 0.00 0.06 90 955.2
20260502113611 56 113 3.5 14.8 0.06 0.00 0.06 90 955.2
20260502113607 56 121 3.5 14.8 0.06 0.00 0.06 89 955.2
20260502113314 57 62 5.2 14.8 0.05 0.00 0.05 88 955.0
20260502112606 58 93 11.3 14.8 0.00 0.00 0.00 88 955.2
20260502112106 58 87 9.6 14.8 0.00 0.00 0.00 86 955.3
20260502111606 59 100 6.1 11.3 0.00 0.00 0.00 85 955.4
20260502111106 60 124 0.0 2.6 0.00 0.00 0.00 82 955.4
20260502110606 60 237 0.9 2.6 0.00 0.00 0.00 83 955.2
20260502110106 60 234 0.9 3.5 0.00 0.00 0.00 82 955.3
20260502105607 61 235 1.7 6.1 0.00 0.00 0.00 81 955.4
20260502105106 61 259 3.5 6.1 0.00 0.00 0.00 79 955.5
20260502104606 61 299 3.5 6.1 0.00 0.00 0.00 79 955.5
20260502104104 61 292 3.5 5.2 0.00 0.00 0.00 79 955.5
20260502103812 62 264 2.6 4.3 0.00 0.00 0.00 79 955.6
20260502103104 62 313 3.5 7.8 0.00 0.00 0.00 79 955.6
20260502102812 62 252 2.6 7.8 0.00 0.00 0.00 79 955.8
20260502102104 62 288 5.2 8.7 0.00 0.00 0.00 78 955.8
20260502101604 61 204 5.2 8.7 0.00 0.00 0.00 78 955.8
20260502101105 61 257 1.7 7.8 0.00 0.00 0.00 80 956.0
20260502100812 61 309 2.6 5.2 0.00 0.00 0.00 80 955.9
20260502100313 61 248 2.6 4.3 0.00 0.00 0.00 80 956.0
20260502091247 60 248 1.7 6.1 0.00 0.00 0.00 81 956.3
20260502090539 60 244 2.6 6.1 0.00 0.00 0.00 81 956.3
20260502090245 60 259 3.5 7.8 0.00 0.00 0.00 81 956.3
20260502071302 59 314 4.3 11.3 0.00 0.00 0.00 82 956.6
20260502071248 59 321 4.3 12.2 0.00 0.00 0.00 82 956.6
20260502070802 59 295 5.2 13.0 0.00 0.00 0.00 81 956.5
20260502070746 59 288 5.2 13.0 0.00 0.00 0.00 81 956.5
20260502070458 59 305 9.6 13.9 0.00 0.00 0.00 80 956.5
20260502065801 59 281 7.0 13.9 0.00 0.00 0.00 80 956.4
20260502065746 59 228 7.0 13.9 0.00 0.00 0.00 79 956.4
20260502065305 59 279 7.0 13.0 0.00 0.00 0.00 79 956.6
20260502065246 59 283 6.1 13.0 0.00 0.00 0.00 79 956.6
20260502064953 59 282 7.0 11.3 0.00 0.00 0.00 80 956.7
20260502064302 59 300 6.1 9.6 0.00 0.00 0.00 80 956.7
20260502064247 59 283 5.2 9.6 0.00 0.00 0.00 80 956.7
20260502063801 59 317 4.3 9.6 0.00 0.00 0.00 80 956.6
20260502063745 59 313 4.3 9.6 0.00 0.00 0.00 80 956.6
20260502063302 59 323 5.2 9.6 0.00 0.00 0.00 80 956.5
20260502063246 59 288 6.1 9.6 0.00 0.00 0.00 79 956.5
20260502062802 59 316 7.0 9.6 0.00 0.00 0.00 79 956.4
20260502062746 59 286 7.0 9.6 0.00 0.00 0.00 79 956.4
20260502062258 59 283 6.1 12.2 0.00 0.00 0.00 79 956.3
20260502062246 59 278 6.1 12.2 0.00 0.00 0.00 79 956.3
20260502061751 59 295 7.0 12.2 0.00 0.00 0.00 78 956.3
20260502061250 59 223 4.3 9.6 0.00 0.00 0.00 79 956.4
20260502061246 59 286 4.3 9.6 0.00 0.00 0.00 79 956.4
20260502060745 59 299 5.2 8.7 0.00 0.00 0.00 78 956.5
20260502060246 59 259 4.3 8.7 0.00 0.00 0.00 78 956.5
20260502055744 59 312 1.7 8.7 0.00 0.00 0.00 78 956.6
20260502055246 59 275 3.5 9.6 0.00 0.00 0.00 77 956.7
20260502054744 59 285 5.2 10.4 0.00 0.00 0.00 77 956.7
20260502054245 59 281 3.5 10.4 0.00 0.00 0.00 77 956.5
20260502053744 59 285 5.2 10.4 0.00 0.00 0.00 76 956.6
20260502053258 59 271 3.5 8.7 0.00 0.00 0.00 76 956.7
20260502052744 59 269 4.3 8.7 0.00 0.00 0.00 76 956.7
20260502052245 58 321 6.1 6.1 0.00 0.00 0.00 76 956.8
20260502051952 58 207 1.7 7.8 0.00 0.00 0.00 76 956.7
20260502051245 58 296 2.6 7.8 0.00 0.00 0.00 76 956.7
20260502050744 58 307 4.3 7.8 0.00 0.00 0.00 76 956.8
20260502050244 58 254 1.7 2.6 0.00 0.00 0.00 76 956.7
20260502045743 58 252 0.9 2.6 0.00 0.00 0.00 76 956.8
20260502045244 58 257 0.9 2.6 0.00 0.00 0.00 76 956.8
20260502044743 58 227 0.9 3.5 0.00 0.00 0.00 75 956.7
20260502044244 58 237 0.9 3.5 0.00 0.00 0.00 75 956.7
20260502043742 58 233 0.9 2.6 0.00 0.00 0.00 75 956.6
20260502043243 58 237 0.9 2.6 0.00 0.00 0.00 75 956.7
20260502043005 58 235 2.6 3.5 0.00 0.00 0.00 76 956.7
20260502042504 58 235 2.6 3.5 0.00 0.00 0.00 76 956.7
20260502042000 58 216 1.7 2.6 0.00 0.00 0.00 76 956.8
20260502041500 58 276 0.9 2.6 0.00 0.00 0.00 76 957.0
20260502041000 58 235 0.9 2.6 0.00 0.00 0.00 76 957.0
20260502040709 58 262 0.9 3.5 0.00 0.00 0.00 76 956.9
20260502040208 58 286 1.7 3.5 0.00 0.00 0.00 76 956.9
20260502035708 58 262 0.9 2.6 0.00 0.00 0.00 76 956.8
20260502035000 58 257 1.7 4.3 0.00 0.00 0.00 76 956.8
20260502034459 58 240 1.7 4.3 0.00 0.00 0.00 75 956.7
20260502034208 58 262 1.7 2.6 0.00 0.00 0.00 76 956.7
20260502033459 58 243 0.9 2.6 0.00 0.00 0.00 76 956.9
20260502032459 58 240 0.9 3.5 0.00 0.00 0.00 76 956.8
20260502031958 58 271 1.7 4.3 0.00 0.00 0.00 75 956.7
20260502031458 58 299 1.7 9.6 0.00 0.00 0.00 75 956.9
20260502030959 58 231 2.6 9.6 0.00 0.00 0.00 75 956.9
20260502030459 58 278 1.7 4.3 0.00 0.00 0.00 75 957.0
20260502030207 58 303 2.6 4.3 0.00 0.00 0.00 75 957.0
20260502025459 58 257 1.7 5.2 0.00 0.00 0.00 76 957.1
20260502024958 58 303 2.6 5.2 0.00 0.00 0.00 76 957.0
20260502024706 58 295 4.3 6.1 0.00 0.00 0.00 75 957.1
20260502023958 58 303 3.5 6.1 0.00 0.00 0.00 76 957.1
20260502023706 58 307 2.6 5.2 0.00 0.00 0.00 77 957.1
20260502023206 58 282 3.5 5.2 0.00 0.00 0.00 77 957.0
20260502022457 58 290 3.5 4.3 0.00 0.00 0.00 77 957.1
20260502021957 58 292 2.6 4.3 0.00 0.00 0.00 77 957.1
20260502021457 58 269 1.7 5.2 0.00 0.00 0.00 77 957.0
20260502020957 58 259 1.7 5.2 0.00 0.00 0.00 77 957.1
20260502020706 58 285 3.5 6.1 0.00 0.00 0.00 77 957.1
20260502015957 58 283 2.6 6.1 0.00 0.00 0.00 77 957.0
20260502015457 58 278 0.9 4.3 0.00 0.00 0.00 77 957.0
20260502014957 58 230 0.9 4.3 0.00 0.00 0.00 76 957.1
20260502014457 58 250 1.7 2.6 0.00 0.00 0.00 76 957.3
20260502013957 58 235 0.0 1.7 0.00 0.00 0.00 76 957.2
20260502013456 58 220 0.9 1.7 0.00 0.00 0.00 76 957.2
20260502012956 58 262 0.9 4.3 0.00 0.00 0.00 76 957.1
20260502012456 58 216 1.7 4.3 0.00 0.00 0.00 76 957.2
20260502011956 59 231 1.7 3.5 0.00 0.00 0.00 75 957.1
20260502011456 59 288 1.7 3.5 0.00 0.00 0.00 75 957.2
20260502010956 59 289 2.6 5.2 0.00 0.00 0.00 74 957.3
20260502010456 59 285 1.7 6.1 0.00 0.00 0.00 74 957.4
20260502005955 59 286 4.3 6.1 0.00 0.00 0.00 73 957.3
20260502005456 59 254 2.6 7.8 0.00 0.00 0.00 74 957.3
20260502004955 60 310 3.5 10.4 0.00 0.00 0.00 74 957.4
20260502004455 60 240 3.5 10.4 0.00 0.00 0.00 74 957.3
20260502003955 59 231 5.2 12.2 0.00 0.00 0.00 74 957.2
20260502003455 59 296 6.1 12.2 0.00 0.00 0.00 74 957.3
20260502002955 59 233 4.3 12.2 0.00 0.00 0.00 74 957.3
20260502002454 59 207 5.2 12.2 0.00 0.00 0.00 74 957.4
20260502001955 60 286 5.2 11.3 0.00 0.00 0.00 73 957.4
20260502001701 60 237 5.2 11.3 0.00 0.00 0.00 73 957.4
20260502000952 60 235 4.3 9.6 0.00 0.00 0.00 73 957.5
20260502000450 60 292 5.2 9.6 0.00 0.00 0.00 73 957.4
20260501235936 60 262 5.2 10.4 0.00 0.00 0.00 73 957.5
20260501235435 60 292 5.2 12.2 0.00 0.00 0.00 73 957.5
20260501234934 60 248 4.3 12.2 0.00 0.00 0.00 73 957.7
20260501234434 60 274 4.3 9.6 0.00 0.00 0.00 74 957.8
20260501233933 60 300 4.3 8.7 0.00 0.00 0.00 75 957.8
20260501233434 59 289 3.5 8.7 0.00 0.00 0.00 75 957.9
20260501232934 59 274 3.5 7.8 0.00 0.00 0.00 76 957.8
20260501232433 59 296 3.5 6.1 0.00 0.00 0.00 76 957.8
20260501232142 60 293 3.5 6.1 0.00 0.00 0.00 75 957.9
20260501231433 60 299 3.5 7.8 0.00 0.00 0.00 75 957.8
20260501230934 60 292 4.3 9.6 0.00 0.00 0.00 74 957.7
20260501230433 60 309 5.2 9.6 0.00 0.00 0.00 75 957.6
20260501225933 60 261 5.2 9.6 0.00 0.00 0.00 75 957.6
20260501225433 60 275 4.3 7.8 0.00 0.00 0.00 75 957.6
20260501224933 60 319 4.3 6.1 0.00 0.00 0.00 75 957.7
20260501224641 60 317 2.6 5.2 0.00 0.00 0.00 76 957.7
20260501223934 60 276 3.5 5.2 0.00 0.00 0.00 76 957.7
20260501223434 60 276 1.7 3.5 0.00 0.00 0.00 76 957.8
20260501222933 60 289 1.7 5.2 0.00 0.00 0.00 76 957.9
20260501222642 60 4 2.6 5.2 0.00 0.00 0.00 75 958.0
20260501221934 61 327 0.9 5.2 0.00 0.00 0.00 74 958.1
20260501221433 61 258 1.7 5.2 0.00 0.00 0.00 73 957.9
20260501220933 61 254 2.6 4.3 0.00 0.00 0.00 74 957.9
20260501220433 61 268 2.6 4.3 0.00 0.00 0.00 74 957.8
20260501215933 61 254 1.7 6.1 0.00 0.00 0.00 75 957.9
20260501215641 61 235 2.6 6.1 0.00 0.00 0.00 75 957.8
20260501214933 61 278 0.9 2.6 0.00 0.00 0.00 75 957.9
20260501214641 61 228 0.0 3.5 0.00 0.00 0.00 74 957.9
20260501213933 61 238 0.9 3.5 0.00 0.00 0.00 74 957.8
20260501213433 61 276 0.9 2.6 0.00 0.00 0.00 74 957.7
20260501212934 60 235 0.0 1.7 0.00 0.00 0.00 75 957.7
20260501212433 61 296 0.0 2.6 0.00 0.00 0.00 74 957.7
20260501211933 61 296 0.0 2.6 0.00 0.00 0.00 73 957.7
20260501211434 61 247 0.9 1.7 0.00 0.00 0.00 74 957.5
20260501211142 61 279 0.0 2.6 0.00 0.00 0.00 74 957.5
20260501210434 61 282 0.0 2.6 0.00 0.00 0.00 75 957.4
20260501205934 60 288 0.9 2.6 0.00 0.00 0.00 76 957.4
20260501205642 60 298 0.9 1.7 0.00 0.00 0.00 76 957.4
20260501204934 60 305 0.0 1.7 0.00 0.00 0.00 76 957.3
20260501204434 60 234 0.0 0.9 0.00 0.00 0.00 76 957.2
20260501203934 60 185 0.0 3.5 0.00 0.00 0.00 75 957.2
20260501203434 61 127 1.7 3.5 0.00 0.00 0.00 74 957.1
20260501202934 61 244 1.7 3.5 0.00 0.00 0.00 74 957.1
20260501202433 61 278 0.0 1.7 0.00 0.00 0.00 75 957.2
20260501201933 61 133 0.0 0.9 0.00 0.00 0.00 74 957.1
20260501201434 62 127 0.0 4.3 0.00 0.00 0.00 73 957.2
20260501200934 62 295 0.9 4.3 0.00 0.00 0.00 71 957.2
20260501200434 62 265 1.7 4.3 0.00 0.00 0.00 71 957.1
20260501200143 62 272 1.7 2.6 0.00 0.00 0.00 71 957.0
20260501195642 63 235 0.9 1.7 0.00 0.00 0.00 71 957.0
20260501195142 63 259 0.9 1.7 0.00 0.00 0.00 70 957.0
20260501194434 63 254 0.9 2.6 0.00 0.00 0.00 70 956.9
20260501193934 63 269 1.7 2.6 0.00 0.00 0.00 70 956.8
20260501193620 63 238 1.7 2.6 0.00 0.00 0.00 70 956.8
20260501192908 63 243 0.9 3.5 0.00 0.00 0.00 69 956.7
20260501192409 63 227 0.9 5.2 0.00 0.00 0.00 70 956.6
20260501191905 63 324 2.6 5.2 0.00 0.00 0.00 69 956.5
20260501191405 64 316 2.6 5.2 0.00 0.00 0.00 70 956.6
20260501190906 64 324 1.7 7.8 0.00 0.00 0.00 68 956.6
20260501190405 64 298 3.5 7.8 0.00 0.00 0.00 68 956.6
20260501185905 64 329 5.2 8.7 0.00 0.00 0.00 68 956.7
20260501185405 65 327 4.3 10.4 0.00 0.00 0.00 67 956.5
20260501184905 65 340 7.0 10.4 0.00 0.00 0.00 67 956.5
20260501184405 65 323 6.1 10.4 0.00 0.00 0.00 67 956.5
20260501184112 65 324 7.0 13.9 0.00 0.00 0.00 66 956.5
20260501183407 66 331 5.2 17.4 0.00 0.00 0.00 66 956.5
20260501183403 66 331 5.2 17.4 0.00 0.00 0.00 66 956.5
20260501182908 66 326 11.3 17.4 0.00 0.00 0.00 64 956.5
20260501182903 66 336 11.3 17.4 0.00 0.00 0.00 64 956.5
20260501182405 67 289 10.4 16.5 0.00 0.00 0.00 64 956.3
20260501182400 67 309 10.4 16.5 0.00 0.00 0.00 64 956.3
20260501181905 67 286 11.3 15.6 0.00 0.00 0.00 64 956.2
20260501181901 67 286 11.3 15.6 0.00 0.00 0.00 64 956.2
20260501181402 67 257 4.3 9.6 0.00 0.00 0.00 63 956.0
20260501181358 67 289 4.3 9.6 0.00 0.00 0.00 63 956.0
20260501180903 68 276 3.5 12.2 0.00 0.00 0.00 62 955.9
20260501180859 68 272 3.5 12.2 0.00 0.00 0.00 62 955.9
20260501180402 68 289 5.2 13.0 0.00 0.00 0.00 61 955.9
20260501180356 68 316 5.2 13.0 0.00 0.00 0.00 61 955.9
20260501175859 68 288 7.0 13.0 0.00 0.00 0.00 62 955.8
20260501175851 68 286 7.0 13.0 0.00 0.00 0.00 62 955.8
20260501175359 68 276 3.5 6.1 0.00 0.00 0.00 63 955.7
20260501175354 68 298 4.3 6.1 0.00 0.00 0.00 63 955.7
20260501174857 68 289 2.6 8.7 0.00 0.00 0.00 63 955.7
20260501174850 68 279 3.5 8.7 0.00 0.00 0.00 63 955.7
20260501174357 69 255 5.2 10.4 0.00 0.00 0.00 61 955.7
20260501174351 69 312 5.2 10.4 0.00 0.00 0.00 61 955.7
20260501173857 69 320 6.1 14.8 0.00 0.00 0.00 62 955.7
20260501173849 69 314 6.1 14.8 0.00 0.00 0.00 62 955.7
20260501173354 69 324 8.7 14.8 0.00 0.00 0.00 61 955.7
20260501173350 69 305 8.7 14.8 0.00 0.00 0.00 61 955.7
20260501172853 69 303 6.1 8.7 0.00 0.00 0.00 62 955.7
20260501172849 69 292 6.1 8.7 0.00 0.00 0.00 62 955.7
20260501172357 69 299 4.3 10.4 0.00 0.00 0.00 60 955.6